DW4805 Weather Reports


time (UTC)temp
C
wind
direction
speed
KPH
gust
KPH
rain 1hr
cm
rain 24hr
cm
rain mn
cm
humidity
%
barometer
mb
20260509213056 30 92 3.2 11.3 0.00 0.00 0.00 42 1008.5
20260509211603 31 70 6.4 11.3 0.00 0.00 0.00 48 1008.7
20260509210056 30 344 3.2 6.4 0.00 0.00 0.00 45 1008.9
20260509204557 30 96 3.2 11.3 0.00 0.03 0.00 45 1009.0
20260509203106 30 97 6.4 9.7 0.00 0.03 0.00 47 1009.1
20260509201606 30 100 4.8 11.3 0.00 0.03 0.00 47 1009.4
20260509200112 30 108 4.8 11.3 0.00 0.03 0.00 47 1009.6
20260509194605 31 105 3.2 9.7 0.00 0.03 0.00 43 1009.8
20260509193114 30 74 4.8 9.7 0.00 0.03 0.00 47 1009.9
20260509191553 30 261 3.2 9.7 0.00 0.03 0.00 41 1010.0
20260509190059 30 331 1.6 9.7 0.00 0.03 0.00 48 1010.1
20260509184607 31 330 1.6 4.8 0.00 0.03 0.00 49 1010.2
20260509183056 29 346 3.2 11.3 0.00 0.03 0.00 48 1010.3
20260509181555 30 122 3.2 6.4 0.00 0.03 0.00 47 1010.6
20260509180054 31 296 1.6 8.0 0.00 0.03 0.00 45 1010.8
20260509174602 31 294 1.6 6.4 0.00 0.03 0.00 44 1010.8
20260509173106 30 303 3.2 8.0 0.00 0.03 0.00 48 1011.0
20260509171615 28 219 1.6 12.9 0.00 0.03 0.00 51 1011.1
20260509170052 28 304 4.8 14.5 0.00 0.03 0.00 53 1011.1
20260509164552 28 275 3.2 9.7 0.00 0.03 0.00 51 1011.4
20260509163104 29 49 1.6 6.4 0.00 0.03 0.00 52 1011.4
20260509161555 27 281 4.8 11.3 0.00 0.03 0.00 59 1011.5
20260509160054 27 298 4.8 11.3 0.00 0.03 0.00 60 1011.5
20260509154553 26 302 6.4 11.3 0.00 0.03 0.00 59 1011.4
20260509153056 26 294 4.8 8.0 0.00 0.03 0.00 63 1011.3
20260509151604 25 285 4.8 14.5 0.00 0.03 0.00 62 1011.2
20260509150105 25 317 4.8 11.3 0.00 0.03 0.00 64 1011.1
20260509144707 25 260 3.2 16.1 0.00 0.03 0.00 67 1011.4
20260509143054 24 293 8.0 17.7 0.00 0.03 0.00 68 1011.2
20260509141554 23 311 8.0 17.7 0.00 0.03 0.00 74 1011.2
20260509140059 22 277 8.0 16.1 0.00 0.03 0.00 75 1011.4
20260509134559 22 290 3.2 12.9 0.00 0.03 0.00 75 1011.5
20260509133057 22 295 4.8 12.9 0.00 0.03 0.00 79 1011.5
20260509131555 21 251 3.2 8.0 0.00 0.03 0.00 80 1011.3
20260509130104 20 317 3.2 9.7 0.00 0.03 0.00 80 1011.2
20260509124611 20 308 1.6 4.8 0.00 0.03 0.00 80 1011.2
20260509123059 19 0 0.0 3.2 0.00 0.03 0.00 84 1011.2
20260509121554 18 298 0.0 3.2 0.00 0.03 0.00 85 1011.1
20260509120105 17 214 0.0 3.2 0.00 0.03 0.00 85 1011.0
20260509114603 18 197 0.0 3.2 0.00 0.03 0.00 83 1010.8
20260509113100 18 0 0.0 1.6 0.00 0.03 0.00 82 1010.5
20260509111556 19 0 0.0 9.7 0.00 0.03 0.00 78 1010.2
20260509110057 20 312 6.4 14.5 0.00 0.03 0.00 76 1010.1
20260509104602 20 315 6.4 19.3 0.00 0.03 0.00 74 1010.0
20260509103057 20 313 8.0 19.3 0.00 0.03 0.00 73 1010.0
20260509101559 21 290 1.6 9.7 0.00 0.03 0.00 74 1010.1
20260509100058 21 288 3.2 14.5 0.00 0.03 0.00 84 1010.0
20260509094559 21 256 1.6 17.7 0.00 0.03 0.00 84 1009.1
20260509093052 21 142 9.7 22.5 0.00 0.03 0.00 88 1007.3
20260509091554 21 159 9.7 22.5 0.00 0.03 0.00 88 1006.5
20260509084558 20 157 9.7 19.3 0.00 0.03 0.00 89 1007.8
20260509083051 20 142 8.0 17.7 0.00 0.03 0.00 90 1008.1
20260509081555 19 176 3.2 6.4 0.00 0.03 0.00 90 1009.0
20260509080101 20 135 4.8 22.5 0.00 0.03 0.00 91 1009.4
20260509074558 20 118 8.0 14.5 0.00 0.03 0.00 91 1009.6
20260509073058 20 133 0.0 4.8 0.00 0.03 0.00 90 1010.4
20260509071608 20 196 1.6 6.4 0.00 0.03 0.00 90 1011.7
20260509070058 20 290 3.2 8.0 0.00 0.03 0.00 91 1012.7
20260509064607 20 285 1.6 3.2 0.00 0.03 0.00 91 1012.6
20260509063109 20 300 1.6 11.3 0.00 0.03 0.00 92 1012.3
20260509061557 19 292 4.8 6.4 0.00 0.03 0.00 92 1012.3
20260509060106 19 285 4.8 8.0 0.00 0.03 0.00 92 1012.2
20260509054612 19 312 3.2 8.0 0.00 0.03 0.00 92 1011.5
20260509053104 19 306 1.6 3.2 0.00 0.03 0.00 91 1011.6
20260509051558 20 0 0.0 3.2 0.00 0.03 0.00 90 1010.9
20260509050102 20 178 1.6 4.8 0.00 0.03 0.00 90 1010.8
20260509044554 20 0 0.0 3.2 0.00 0.03 0.03 90 1011.1
20260509043100 20 0 0.0 3.2 0.00 0.03 0.03 88 1010.9
20260509041554 20 17 0.0 3.2 0.00 0.03 0.03 88 1011.0
20260509040057 21 102 3.2 6.4 0.00 0.03 0.03 87 1010.6
20260509034602 21 149 1.6 11.3 0.00 0.03 0.03 87 1010.3
20260509033056 21 106 1.6 12.9 0.00 0.03 0.03 87 1010.0
20260509031602 21 98 3.2 9.7 0.00 0.03 0.03 87 1009.6
20260509030056 21 182 3.2 11.3 0.00 0.03 0.03 88 1009.5
20260509024559 21 128 4.8 12.9 0.00 0.03 0.03 88 1009.0
20260509023058 21 96 1.6 6.4 0.00 0.03 0.03 88 1009.2
20260509021555 21 97 3.2 6.4 0.00 0.03 0.03 88 1009.2
20260509020058 21 117 0.0 3.2 0.00 0.03 0.03 86 1009.2
20260509014559 21 0 0.0 3.2 0.00 0.03 0.03 86 1009.3
20260509013114 21 0 0.0 1.6 0.00 0.03 0.03 85 1009.2
20260509011605 21 0 0.0 3.2 0.00 0.03 0.03 84 1009.1
20260509010057 21 94 0.0 3.2 0.00 0.03 0.03 83 1008.7
20260509004557 22 121 3.2 4.8 0.00 0.03 0.03 82 1008.6
20260509003102 22 103 1.6 1.6 0.00 0.03 0.03 81 1008.7
20260509001555 22 65 0.0 3.2 0.00 0.03 0.03 80 1008.8
20260509000100 22 0 0.0 3.2 0.00 0.03 0.03 79 1009.0
20260508234553 22 65 0.0 4.8 0.00 0.03 0.03 79 1009.1
20260508233058 22 58 1.6 6.4 0.00 0.03 0.03 79 1008.9
20260508231612 22 125 1.6 6.4 0.00 0.03 0.03 80 1009.0
20260508230103 22 113 4.8 11.3 0.00 0.03 0.03 79 1009.0
20260508224614 22 175 4.8 17.7 0.00 0.03 0.03 77 1009.0
20260508223055 22 105 8.0 17.7 0.00 0.03 0.03 79 1009.1
20260508221603 22 103 12.9 17.7 0.00 0.03 0.03 78 1009.0
20260508220107 21 100 9.7 17.7 0.00 0.03 0.03 80 1009.2
20260508214601 21 111 6.4 17.7 0.00 0.03 0.03 81 1009.4